EST,Max TemperatureF,Mean TemperatureF,Min TemperatureF,Max Dew PointF,MeanDew PointF,Min DewpointF,Max Humidity, Mean Humidity, Min Humidity, Max Sea Level PressureIn, Mean Sea Level PressureIn, Min Sea Level PressureIn, Max VisibilityMiles, Mean VisibilityMiles, Min VisibilityMiles, Max Wind SpeedMPH, Mean Wind SpeedMPH, Max Gust SpeedMPH,PrecipitationIn, CloudCover, Events, WindDirDegrees
2014-1-1,15,13,11,11,8,6,92,84,76,30.38,30.28,30.17,10,2,0,14,8,17,0.20,8,Fog-Snow,45
2014-1-2,14,7,0,9,5,-7,84,76,68,30.33,30.15,30.05,10,3,0,23,12,35,0.11,7,Fog-Snow,18
2014-1-3,13,0,-14,2,-8,-19,87,70,53,30.47,30.36,30.13,10,9,2,21,9,29,0.00,1,,219
2014-1-4,31,22,12,26,17,3,92,71,50,30.09,29.98,29.90,10,7,1,25,13,33,0.13,3,Snow,217
2014-1-5,29,23,17,27,22,13,100,92,84,30.03,29.85,29.62,2,1,0,21,8,35,0.90,8,Fog-Snow,19
2014-1-6,17,1,-16,12,-4,-23,88,76,63,30.14,29.88,29.66,10,3,0,25,17,36,T,7,Snow,263
2014-1-7,0,-7,-15,-7,-14,-21,77,68,58,30.36,30.25,30.14,10,9,6,23,14,31,0.00,3,,233
2014-1-8,17,5,-7,6,-2,-9,95,78,61,30.54,30.41,30.27,10,10,8,10,6,13,0.00,1,,231
2014-1-9,21,6,-9,19,8,-10,88,78,67,30.61,30.43,30.25,10,4,1,14,6,17,T,7,Snow,142
2014-1-10,39,31,22,38,29,19,100,95,89,30.26,30.06,29.65,9,3,0,17,10,23,0.31,8,Fog-Rain-Snow,160
2014-1-11,42,37,32,41,36,27,100,88,75,29.68,29.46,29.33,10,6,1,21,12,33,0.09,8,Rain-Snow,237
2014-1-12,39,35,30,29,27,24,85,75,64,29.95,29.80,29.67,10,10,4,25,14,34,0.00,4,,239
2014-1-13,45,40,34,35,31,29,85,74,62,29.72,29.64,29.55,10,10,10,20,11,25,0.00,2,,223
2014-1-14,37,31,25,30,25,15,92,74,56,29.79,29.72,29.66,10,8,1,26,11,36,T,6,Snow,222
2014-1-15,26,22,17,20,16,11,81,72,63,30.02,29.90,29.70,10,8,1,26,11,36,T,8,Snow,256
2014-1-16,27,22,16,24,18,9,92,83,73,29.93,29.69,29.59,10,4,0,20,13,29,0.02,8,Fog-Snow,183
2014-1-17,28,20,12,25,17,6,85,77,68,29.96,29.77,29.58,10,9,2,18,9,26,T,8,Snow,251
2014-1-18,20,15,10,12,10,6,88,78,67,29.95,29.89,29.82,10,6,2,15,8,20,T,7,Snow,203
2014-1-19,30,20,9,23,16,6,92,80,68,29.82,29.67,29.53,10,8,4,30,13,41,0.00,6,,230
2014-1-20,32,21,10,26,17,3,92,78,63,30.08,29.82,29.52,10,8,1,20,8,29,T,8,Snow,350
2014-1-21,10,1,-9,0,-8,-13,75,60,45,30.25,30.18,30.04,10,9,2,18,9,25,T,2,Snow,3
2014-1-22,10,0,-10,5,1,-12,83,72,60,30.22,29.97,29.88,10,4,1,18,7,22,T,8,Snow,195
2014-1-23,15,9,2,3,1,-1,95,77,58,30.50,30.28,29.99,10,8,2,15,7,21,T,6,Snow,287
2014-1-24,19,8,-4,13,2,-11,91,71,50,30.46,30.01,29.50,10,6,2,29,17,40,T,5,Snow,220
2014-1-25,27,16,4,22,11,-2,88,75,61,29.81,29.46,29.28,10,3,0,26,14,35,0.04,8,Fog-Snow,286
2014-1-26,27,13,-1,23,8,-1,95,82,68,29.79,29.53,29.34,10,4,0,21,10,30,0.04,8,Fog-Snow,201
2014-1-27,18,6,-7,16,0,-11,92,76,59,30.33,29.93,29.44,10,4,0,29,11,36,0.05,6,Fog-Snow,295
2014-1-28,4,-3,-10,-5,-11,-15,83,68,53,30.39,30.32,30.21,10,9,1,17,12,23,0.00,0,,236
2014-1-29,15,6,-3,2,-3,-10,79,63,46,30.22,30.15,30.06,10,9,6,23,13,32,0.00,2,,233
2014-1-30,29,20,11,23,11,1,92,70,47,30.13,29.92,29.78,10,7,0,25,16,33,0.01,4,Fog-Snow,199
2014-1-31,31,28,24,25,21,16,81,75,68,30.15,30.04,29.84,10,9,2,15,6,20,T,7,Snow,260